This is the latest recevied weather packets stored in our database for station/object KA9CBS. If no packets are shown the sender has not sent any weather packets the latest 10 day(s).
| Time | Temp. | Humidity | Pressure | Rain* | Wind** | Luminosity | Snow |
|---|---|---|---|---|---|---|---|
| 1788067066 | 20° C | 90% | 1020 hPa | 0 mm | - | 0 W/m² | - |
| 1788066761 | 20° C | 90% | 1020 hPa | 0 mm | - | 0 W/m² | - |
| 1788066460 | 20.56° C | 89% | 1020.2 hPa | 0 mm | - | 0 W/m² | - |
| 1788066155 | 20.56° C | 89% | 1019.9 hPa | 0 mm | - | 0 W/m² | - |
| 1788065853 | 20.56° C | 90% | 1019.8 hPa | 0 mm | - | 0 W/m² | - |
| 1788065549 | 20° C | 90% | 1019.9 hPa | 0 mm | - | 0 W/m² | - |
| 1788065247 | 20° C | 90% | 1019.7 hPa | 0 mm | - | 0 W/m² | - |
| 1788064943 | 20° C | 90% | 1019.6 hPa | 0 mm | - | 0 W/m² | - |
| 1788064638 | 20.56° C | 89% | 1019.5 hPa | 0 mm | - | 0 W/m² | - |
| 1788064333 | 20.56° C | 89% | 1019.6 hPa | 0 mm | - | 0 W/m² | - |
| 1788064030 | 20.56° C | 89% | 1019.8 hPa | 0 mm | - | 0 W/m² | - |
| 1788063725 | 20.56° C | 88% | 1019.9 hPa | 0 mm | - | 0 W/m² | - |
| 1788063424 | 20.56° C | 87% | 1019.8 hPa | 0 mm | - | 0 W/m² | - |
| 1788063124 | 21.11° C | 86% | 1019.7 hPa | 0 mm | - | 0 W/m² | - |
| 1788062819 | 21.11° C | 86% | 1019.7 hPa | 0 mm | - | 0 W/m² | - |
| 1788062516 | 21.11° C | 86% | 1019.9 hPa | 0 mm | - | 0 W/m² | - |
| 1788062213 | 20.56° C | 88% | 1019.9 hPa | 0 mm | - | 0 W/m² | - |
| 1788061909 | 20.56° C | 88% | 1019.9 hPa | 0 mm | - | 0 W/m² | - |
| 1788061604 | 21.11° C | 88% | 1019.9 hPa | 0 mm | - | 0 W/m² | - |
| 1788061303 | 21.11° C | 87% | 1020 hPa | 0 mm | - | 0 W/m² | - |
| 1788060999 | 21.11° C | 86% | 1020 hPa | 0 mm | - | 0 W/m² | - |
| 1788060694 | 21.11° C | 85% | 1019.9 hPa | 0 mm | - | 0 W/m² | - |
| 1788060393 | 21.67° C | 84% | 1020.1 hPa | 0 mm | - | 0 W/m² | - |
| 1788060088 | 21.67° C | 84% | 1020 hPa | 0 mm | - | 0 W/m² | - |
| 1788059784 | 22.22° C | 83% | 1020.2 hPa | 0 mm | - | 0 W/m² | - |
* Rain latest hour (hover to see other rain measurements)
** Current wind speed in m/s (hover to see current wind gust speed)